This is the latest recevied weather packets stored in our database for station/object IT9GFD-13. If no packets are shown the sender has not sent any weather packets the latest 10 day(s).
| Time | Temp. | Humidity | Pressure | Rain* | Wind** | Luminosity | Snow |
|---|---|---|---|---|---|---|---|
| 1777597257 | 15.56° C | 88% | 1018.4 hPa | 0 mm | - | - | - |
| 1777587616 | 16.67° C | 86% | 1018.9 hPa | 0 mm | - | - | - |
| 1777587016 | 16.67° C | 86% | 1019 hPa | 0 mm | - | - | - |
| 1777586416 | 16.67° C | 86% | 1018.9 hPa | 0 mm | - | - | - |
| 1777585816 | 16.67° C | 85% | 1018.9 hPa | 0 mm | - | - | - |
| 1777582816 | 17.22° C | 84% | 1018.6 hPa | 0 mm | - | - | - |
| 1777581016 | 18.33° C | 82% | 1018.6 hPa | 0 mm | - | - | - |
| 1777579816 | 18.33° C | 81% | 1018.6 hPa | 0 mm | - | - | - |
| 1777578636 | 18.33° C | 80% | 1018.6 hPa | 0 mm | - | - | - |
| 1777576816 | 18.33° C | 80% | 1018.4 hPa | 0 mm | - | - | - |
| 1777571417 | 19.44° C | 78% | 1017.5 hPa | 0 mm | - | - | - |
| 1777563618 | 21.11° C | 72% | 1016.8 hPa | 0 mm | - | - | - |
| 1777559417 | 21.11° C | 68% | 1016.5 hPa | 0 mm | - | - | - |
| 1777558817 | 21.11° C | 63% | 1016.4 hPa | 0 mm | - | - | - |
| 1777552217 | 21.67° C | 54% | 1016.2 hPa | 0 mm | - | - | - |
| 1777548617 | 21.11° C | 63% | 1017.7 hPa | 0 mm | - | - | - |
| 1777548021 | 20.56° C | 63% | 1017.4 hPa | 0 mm | - | - | - |
| 1777546237 | 20° C | 65% | 1017.2 hPa | 0 mm | - | - | - |
| 1777545617 | 19.44° C | 68% | 1017.1 hPa | 0 mm | - | - | - |
| 1777540817 | 19.44° C | 76% | 1017.7 hPa | 0 mm | - | - | - |
| 1777537817 | 20° C | 73% | 1017.8 hPa | 0 mm | - | - | - |
| 1777535417 | 19.44° C | 71% | 1017.6 hPa | 0 mm | - | - | - |
| 1777529416 | 18.89° C | 70% | 1016.7 hPa | 0 mm | - | - | - |
| 1777528217 | 17.22° C | 73% | 1016.6 hPa | 0 mm | - | - | - |
| 1777524617 | 16.67° C | 69% | 1016.8 hPa | 0 mm | - | - | - |
* Rain latest hour (hover to see other rain measurements)
** Current wind speed in m/s (hover to see current wind gust speed)